| time (UTC) | temp C | wind direction | speed KPH | gust KPH | rain 1hr cm | rain 24hr cm | rain mn cm | humidity % | barometer mb |
| 20260506120055 | 10 | 0 | 0.0 | 0.0 | 0.08 | 10.34 | 4.95 | 86 | 1009.4 |
| 20260506114544 | 10 | 0 | 0.0 | 3.2 | 0.05 | 10.34 | 4.93 | 85 | 1009.2 |
| 20260506113044 | 11 | 0 | 0.0 | 3.2 | 0.00 | 10.29 | 4.88 | 83 | 1009.2 |
| 20260506111549 | 11 | 0 | 3.2 | 12.9 | 0.00 | 10.26 | 4.88 | 81 | 1009.2 |
| 20260506110048 | 11 | 25 | 4.8 | 12.9 | 0.00 | 10.26 | 4.88 | 80 | 1009.1 |
| 20260506104558 | 10 | 324 | 1.6 | 9.7 | 0.00 | 10.29 | 4.88 | 82 | 1009.2 |
| 20260506103047 | 10 | 17 | 3.2 | 11.3 | 0.05 | 10.29 | 4.88 | 83 | 1009.1 |
| 20260506101544 | 10 | 17 | 3.2 | 11.3 | 0.05 | 10.29 | 4.88 | 83 | 1009.2 |
| 20260506100053 | 10 | 300 | 4.8 | 12.9 | 0.03 | 10.26 | 4.85 | 84 | 1009.4 |
| 20260506094540 | 10 | 35 | 8.0 | 16.1 | 0.03 | 10.26 | 4.85 | 82 | 1009.3 |
| 20260506093040 | 10 | 43 | 8.0 | 16.1 | 0.00 | 10.24 | 4.80 | 78 | 1009.2 |
| 20260506091544 | 10 | 9 | 8.0 | 20.9 | 0.00 | 10.24 | 4.80 | 77 | 1009.2 |
| 20260506090044 | 10 | 11 | 4.8 | 24.1 | 0.00 | 10.24 | 4.80 | 80 | 1009.3 |
| 20260506084614 | 10 | 11 | 6.4 | 17.7 | 0.00 | 10.24 | 4.80 | 81 | 1008.9 |
| 20260506083052 | 10 | 9 | 9.7 | 17.7 | 0.00 | 10.24 | 4.80 | 82 | 1009.0 |
| 20260506081552 | 9 | 26 | 9.7 | 20.9 | 0.00 | 10.24 | 4.80 | 83 | 1009.1 |
| 20260506073046 | 8 | 177 | 3.2 | 14.5 | 0.18 | 10.24 | 4.80 | 88 | 1009.3 |
| 20260506071544 | 8 | 360 | 4.8 | 19.3 | 0.23 | 10.24 | 4.80 | 89 | 1009.4 |
| 20260506061554 | 8 | 309 | 16.1 | 25.7 | 0.05 | 9.98 | 4.57 | 85 | 1009.4 |
| 20260506044547 | 9 | 180 | 17.7 | 40.2 | 0.13 | 9.91 | 4.50 | 88 | 1009.2 |
| 20260506043045 | 9 | 163 | 17.7 | 37.0 | 0.10 | 9.86 | 4.45 | 89 | 1009.3 |
| 20260506041551 | 9 | 188 | 17.7 | 30.6 | 0.10 | 9.86 | 4.42 | 90 | 1009.6 |
| 20260506040050 | 9 | 179 | 17.7 | 43.5 | 0.10 | 9.80 | 4.39 | 89 | 1009.6 |
| 20260506034548 | 9 | 179 | 20.9 | 40.2 | 0.08 | 9.78 | 4.34 | 89 | 1009.6 |
| 20260506033048 | 9 | 205 | 17.7 | 30.6 | 0.08 | 9.75 | 4.32 | 91 | 1009.5 |
| 20260506031551 | 8 | 169 | 17.7 | 45.1 | 0.05 | 9.70 | 4.29 | 90 | 1009.4 |
| 20260506030040 | 9 | 184 | 32.2 | 46.7 | 0.03 | 9.68 | 4.27 | 90 | 1009.2 |
| 20260506024544 | 9 | 167 | 19.3 | 37.0 | 0.00 | 9.68 | 4.24 | 92 | 1009.1 |
| 20260506023100 | 10 | 167 | 22.5 | 37.0 | 0.05 | 9.68 | 4.24 | 91 | 1009.5 |
| 20260506021604 | 10 | 173 | 17.7 | 30.6 | 0.08 | 9.65 | 4.22 | 92 | 1009.3 |
| 20260506020047 | 9 | 191 | 25.7 | 54.7 | 0.23 | 9.65 | 4.22 | 91 | 1008.8 |
| 20260506014544 | 10 | 179 | 20.9 | 40.2 | 0.28 | 9.65 | 4.22 | 91 | 1008.6 |
| 20260506013053 | 9 | 203 | 16.1 | 37.0 | 0.25 | 9.58 | 4.17 | 91 | 1008.6 |
| 20260506011546 | 10 | 173 | 32.2 | 51.5 | 0.46 | 9.55 | 4.11 | 89 | 1008.9 |
| 20260506010041 | 10 | 172 | 33.8 | 53.1 | 0.61 | 9.40 | 3.99 | 90 | 1008.9 |
| 20260506004547 | 9 | 170 | 32.2 | 45.1 | 0.91 | 9.37 | 3.94 | 90 | 1009.4 |
| 20260506003044 | 9 | 159 | 12.9 | 27.4 | 1.30 | 9.32 | 3.91 | 92 | 1009.8 |
| 20260506001547 | 9 | 148 | 9.7 | 30.6 | 1.68 | 9.07 | 3.66 | 92 | 1010.5 |
| 20260506000047 | 9 | 266 | 6.4 | 25.7 | 2.16 | 8.76 | 3.35 | 92 | 1010.9 |
| 20260505234540 | 9 | 207 | 6.4 | 27.4 | 2.21 | 8.46 | 3.02 | 92 | 1011.2 |
| 20260505233044 | 9 | 11 | 8.0 | 20.9 | 2.11 | 7.98 | 2.57 | 92 | 1011.4 |
| 20260505231556 | 9 | 248 | 9.7 | 25.7 | 1.78 | 7.32 | 1.91 | 92 | 1011.5 |
| 20260505230041 | 9 | 10 | 17.7 | 32.2 | 1.14 | 6.58 | 1.14 | 91 | 1011.2 |
| 20260505224540 | 9 | 244 | 3.2 | 14.5 | 0.99 | 6.22 | 0.81 | 92 | 1011.6 |
| 20260505223048 | 9 | 360 | 11.3 | 30.6 | 0.89 | 5.84 | 0.43 | 91 | 1011.7 |
| 20260505221545 | 9 | 66 | 9.7 | 37.0 | 1.22 | 5.54 | 0.10 | 92 | 1011.8 |
| 20260505220057 | 9 | 194 | 9.7 | 25.7 | 1.45 | 5.41 | 0.00 | 92 | 1012.0 |
| 20260505214552 | 9 | 205 | 6.4 | 30.6 | 1.52 | 5.21 | 5.21 | 92 | 1012.1 |
| 20260505213049 | 9 | 201 | 6.4 | 16.1 | 1.47 | 4.93 | 4.93 | 92 | 1012.5 |
| 20260505211542 | 9 | 360 | 9.7 | 32.2 | 0.99 | 4.29 | 4.29 | 91 | 1012.7 |
| 20260505210046 | 10 | 142 | 8.0 | 35.4 | 0.76 | 3.94 | 3.94 | 91 | 1012.8 |
| 20260505204550 | 10 | 94 | 16.1 | 32.2 | 0.64 | 3.66 | 3.66 | 91 | 1012.7 |
| 20260505203054 | 10 | 100 | 9.7 | 24.1 | 0.46 | 3.45 | 3.45 | 91 | 1013.2 |
| 20260505201602 | 10 | 140 | 11.3 | 20.9 | 0.36 | 3.28 | 3.28 | 91 | 1013.6 |
| 20260505200052 | 10 | 113 | 4.8 | 17.7 | 0.41 | 3.15 | 3.15 | 91 | 1013.9 |
| 20260505194546 | 10 | 128 | 17.7 | 29.0 | 0.43 | 3.00 | 3.00 | 90 | 1014.1 |
| 20260505193044 | 10 | 136 | 14.5 | 27.4 | 0.58 | 2.95 | 2.95 | 91 | 1014.1 |
| 20260505191600 | 10 | 118 | 19.3 | 32.2 | 0.74 | 2.90 | 2.90 | 90 | 1014.4 |
| 20260505190050 | 10 | 129 | 20.9 | 29.0 | 0.84 | 2.72 | 2.72 | 91 | 1014.5 |
| 20260505184546 | 10 | 123 | 19.3 | 27.4 | 0.89 | 2.57 | 2.57 | 92 | 1014.5 |
| 20260505183046 | 10 | 126 | 14.5 | 20.9 | 0.84 | 2.34 | 2.34 | 92 | 1015.0 |
| 20260505181546 | 10 | 126 | 9.7 | 19.3 | 0.86 | 2.13 | 2.13 | 92 | 1015.0 |
| 20260505180051 | 10 | 114 | 9.7 | 19.3 | 0.89 | 1.88 | 1.88 | 93 | 1015.1 |
| 20260505174547 | 10 | 119 | 12.9 | 27.4 | 1.04 | 1.68 | 1.68 | 92 | 1015.2 |
| 20260505173049 | 10 | 126 | 16.1 | 29.0 | 1.17 | 1.50 | 1.50 | 92 | 1015.2 |
| 20260505171549 | 10 | 133 | 19.3 | 29.0 | 0.99 | 1.24 | 1.24 | 92 | 1015.3 |
| 20260505164553 | 11 | 119 | 11.3 | 17.7 | 0.46 | 0.61 | 0.61 | 93 | 1015.5 |
| 20260505163049 | 11 | 133 | 3.2 | 11.3 | 0.23 | 0.30 | 0.30 | 93 | 1015.2 |
| 20260505161552 | 11 | 83 | 6.4 | 22.5 | 0.18 | 0.25 | 0.25 | 93 | 1014.4 |
| 20260505153059 | 11 | 113 | 6.4 | 19.3 | 0.00 | 0.08 | 0.08 | 93 | 1014.2 |
| 20260505151559 | 11 | 110 | 6.4 | 14.5 | 0.00 | 0.08 | 0.08 | 93 | 1014.0 |
| 20260505130105 | 11 | 90 | 6.4 | 16.1 | 0.00 | 0.00 | 0.00 | 92 | 1015.3 |
| 20260505124556 | 11 | 131 | 4.8 | 14.5 | 0.00 | 0.00 | 0.00 | 91 | 1015.2 |
| 20260505123055 | 11 | 102 | 6.4 | 16.1 | 0.00 | 0.00 | 0.00 | 91 | 1015.3 |
| 20260505121608 | 11 | 132 | 6.4 | 16.1 | 0.00 | 0.00 | 0.00 | 90 | 1015.6 |